Weather History for Orange, MA

Change the Weather History Date:

Sunday, December 9, 2012

  Actual Average Record
Temperature  
Mean Temperature 37 °F -  
Max Temperature 44 °F 37 °F 52 °F (2008)
Min Temperature 30 °F 20 °F 1 °F (2002)
Degree Days  
Heating Degree Days 28    
Moisture  
Dew Point 34 °F    
Average Humidity 94    
Maximum Humidity 100    
Minimum Humidity 55    
Precipitation  
Precipitation 0.15 in - - ()
Sea Level Pressure  
Sea Level Pressure 30.11 in    
Wind  
Wind Speed 1 mph (SSW)    
Max Wind Speed 6 mph    
Max Gust Speed -    
Visibility 4 miles    
Events Fog , Rain    
Averages and records for this station are not official NWS values.
T = Trace of Precipitation, MM = Missing Value Source: NWS Daily Summary

Daily Weather History Graph

Daily Weather History Graph

Search for Another Location

Airport:

Trip Planner

Search our weather history database for the weather conditions in past years. The results will help you decide how hot, cold, wet, or windy it might be!

Date:

Astronomy

Dec. 09, 2012 Rise Set
Actual Time 7:07 AM EST 4:15 PM EST
Civil Twilight 6:35 AM EST 4:47 PM EST
Nautical Twilight 6:00 AM EST 5:23 PM EST
Astronomical Twilight 5:26 AM EST 5:57 PM EST
Moon 2:33 AM EST (12/9) 1:24 PM EST (12/9)
Length of Visible Light 10h 11m
Length of Day
9h 08m
Waning Crescent, 19% of the Moon is Illuminated
Dec 9
Waning Crescent
Dec 13
New
Dec 20
First Quarter
Dec 28
Full
Jan 4
Last Quarter

Hourly Weather History & Observations

Time (EST) Temp. Windchill Dew Point Humidity Pressure Visibility Wind Dir Wind Speed Gust Speed Precip Events Conditions
12:02 AM 42.8 °F - 41.0 °F 93% 29.97 in 5.0 mi Calm Calm - N/A   Overcast
12:08 AM 41.0 °F - 39.2 °F 93% 29.97 in 1.5 mi Calm Calm - N/A   Overcast
12:10 AM 39.2 °F 37.0 °F 39.2 °F 100% 29.97 in 1.0 mi NW 3.5 mph - N/A   Overcast
12:17 AM 39.2 °F 35.9 °F 39.2 °F 100% 29.97 in 0.5 mi WNW 4.6 mph - N/A Fog Fog
12:33 AM 41.0 °F - 39.2 °F 93% 29.98 in 1.2 mi Calm Calm - N/A   Overcast
12:35 AM 41.0 °F - 39.2 °F 93% 29.98 in 2.0 mi Calm Calm - N/A   Overcast
12:52 AM 39.9 °F - 39.9 °F 100% 30.00 in 3.0 mi Calm Calm - N/A   Overcast
1:01 AM 39.2 °F - 39.2 °F 100% 29.99 in 1.8 mi Calm Calm - N/A   Overcast
1:04 AM 39.2 °F - 39.2 °F 100% 29.98 in 1.0 mi Calm Calm - N/A   Overcast
1:12 AM 39.2 °F - 39.2 °F 100% 29.99 in 0.5 mi Calm Calm - N/A Fog Fog
1:52 AM 39.0 °F - 39.0 °F 100% 30.03 in 0.2 mi Calm Calm - N/A Fog Fog
2:41 AM 37.4 °F 32.8 °F 35.6 °F 93% 30.04 in 1.2 mi SSW 5.8 mph - N/A   Scattered Clouds
2:49 AM 35.6 °F 31.7 °F 35.6 °F 100% 30.04 in 0.8 mi SSW 4.6 mph - N/A   Mist
2:52 AM 36.0 °F 33.3 °F 36.0 °F 100% 30.06 in 0.8 mi SW 3.5 mph - N/A   Mist
3:01 AM 35.6 °F 30.7 °F 35.6 °F 100% 30.04 in 1.0 mi SSW 5.8 mph - N/A   Clear
3:03 AM 37.4 °F 33.8 °F 35.6 °F 93% 30.04 in 1.5 mi SSW 4.6 mph - N/A   Clear
3:11 AM 35.6 °F 31.7 °F 35.6 °F 100% 30.04 in 2.0 mi SSW 4.6 mph - N/A   Clear
3:16 AM 35.6 °F 32.8 °F 35.6 °F 100% 30.05 in 1.2 mi SSW 3.5 mph - N/A   Clear
3:22 AM 35.6 °F - 35.6 °F 100% 30.05 in 2.0 mi Calm Calm - N/A   Clear
3:29 AM 33.8 °F - 33.8 °F 100% 30.05 in 1.5 mi Calm Calm - N/A   Clear
3:32 AM 33.8 °F - 33.8 °F 100% 30.05 in 1.0 mi Calm Calm - N/A   Clear
3:39 AM 35.6 °F 32.8 °F 35.6 °F 100% 30.05 in 1.0 mi SSE 3.5 mph - N/A   Mist
3:52 AM 33.1 °F - 33.1 °F 100% 30.07 in 0.5 mi Calm Calm - N/A Fog Fog
4:31 AM 32.0 °F - 32.0 °F 100% 30.07 in 1.5 mi Calm Calm - N/A   Scattered Clouds
4:34 AM 32.0 °F - 32.0 °F 100% 30.07 in 3.0 mi Calm Calm - N/A   Scattered Clouds
4:43 AM 32.0 °F - 32.0 °F 100% 30.08 in 2.0 mi Calm Calm - N/A   Partly Cloudy
4:52 AM 30.9 °F 27.5 °F 30.9 °F 100% 30.10 in 2.0 mi SSW 3.5 mph - N/A   Clear
5:02 AM 32.0 °F - 30.2 °F 93% 30.09 in 2.5 mi Calm Calm - N/A   Partly Cloudy
5:06 AM 30.2 °F 26.7 °F 30.2 °F 100% 30.10 in 1.2 mi ENE 3.5 mph - N/A   Partly Cloudy
5:09 AM 30.2 °F 26.7 °F 30.2 °F 100% 30.10 in 0.8 mi East 3.5 mph - N/A   Mist
5:16 AM 30.2 °F 25.4 °F 30.2 °F 100% 30.10 in 1.2 mi East 4.6 mph - N/A   Partly Cloudy
5:19 AM 32.0 °F - 30.2 °F 93% 30.10 in 2.0 mi Calm Calm - N/A   Partly Cloudy
5:27 AM 32.0 °F - 32.0 °F 100% 30.11 in 6.0 mi Calm Calm - N/A   Partly Cloudy
5:52 AM 30.9 °F - 30.9 °F 100% 30.14 in 6.0 mi Calm Calm - N/A   Clear
6:52 AM 30.0 °F - 30.0 °F 100% 30.18 in 5.0 mi Calm Calm - N/A   Clear
7:52 AM 30.9 °F - 30.9 °F 100% 30.22 in 4.0 mi Calm Calm - N/A   Clear
8:52 AM 33.1 °F - 32.0 °F 96% 30.25 in 4.0 mi Calm Calm - N/A   Clear
9:52 AM 37.0 °F - 34.0 °F 89% 30.26 in 10.0 mi Calm Calm - N/A   Clear
10:52 AM 39.9 °F - 34.0 °F 79% 30.26 in 10.0 mi Calm Calm - N/A   Clear
11:52 AM 42.1 °F - 33.1 °F 70% 30.25 in 10.0 mi Calm Calm - N/A   Clear
12:52 PM 43.0 °F 41.3 °F 32.0 °F 65% 30.24 in 10.0 mi North 3.5 mph - N/A   Clear
1:52 PM 44.1 °F 41.5 °F 28.9 °F 55% 30.23 in 10.0 mi North 4.6 mph - N/A   Clear
2:52 PM 44.1 °F 42.5 °F 28.9 °F 55% 30.24 in 10.0 mi East 3.5 mph - N/A   Clear
3:52 PM 37.9 °F - 33.1 °F 83% 30.25 in 10.0 mi Calm Calm - N/A   Clear
4:52 PM 35.1 °F - 34.0 °F 96% 30.27 in 10.0 mi Calm Calm - N/A   Clear
5:52 PM 36.0 °F - 34.0 °F 93% 30.28 in 10.0 mi Calm Calm - N/A   Overcast
6:52 PM 36.0 °F - 34.0 °F 93% 30.27 in 10.0 mi Calm Calm - N/A   Overcast
7:52 PM 36.0 °F - 35.1 °F 97% 30.26 in 10.0 mi Calm Calm - N/A   Overcast
8:39 PM 37.4 °F - 33.8 °F 87% 30.22 in 10.0 mi Calm Calm - N/A   Overcast
8:52 PM 37.0 °F - 35.1 °F 93% 30.24 in 10.0 mi Calm Calm - 0.00 in Rain Light Rain
9:43 PM 35.6 °F - 35.6 °F 100% 30.19 in 5.0 mi Calm Calm - 0.01 in Rain Light Rain
9:52 PM 36.0 °F - 35.1 °F 97% 30.21 in 5.0 mi Calm Calm - 0.02 in Rain Light Rain
10:52 PM 36.0 °F - 35.1 °F 97% 30.18 in 5.0 mi Calm Calm - 0.06 in Rain Rain
11:52 PM 37.0 °F - 36.0 °F 96% 30.14 in 7.0 mi Calm Calm - 0.07 in Rain Light Rain